RH
21 17 15 16 20 24 27 27 28 27 25 18 12 11 13 14 12 12 13 12 10 15 20 17 19 24 31 34 33 28 25 23 21 20 17 15 14 12 11 9 8 7 7
36 26 23 22 18 17 20 21 27 30 31 32 29 20 28 26 24 20 23 23 21 22 23 22 24 30 37 37 34 30 26 25 22 19 16 14 11 8 7 5 4 4 4
41 40 36 30 25 24 20 18 20 21 24 30 33 34 29 30 33 33 34 33 31 29 25 25 28 36 41 37 33 29 28 29 21 18 13 9 7 4 3 3 3 2 3
48 49 42 35 36 39 40 32 26 25 24 24 28 37 38 34 36 37 37 36 35 32 30 30 34 44 43 35 32 34 32 25 20 14 11 6 4 3 2 3 2 3 4
70 77 66 65 42 39 35 36 38 37 35 35 34 35 41 46 39 30 34 37 43 40 34 37 46 50 43 35 40 39 32 23 15 12 8 5 4 3 3 3 4 5 6
85 90 88 67 58 53 38 48 52 48 47 48 50 50 56 54 42 38 42 35 42 39 43 55 56 56 48 40 44 40 29 23 18 12 7 5 4 4 6 8 9 7 8
88 88 88 90 66 56 46 59 58 60 64 63 59 54 49 51 48 49 53 52 44 44 57 63 58 59 54 47 52 36 28 23 19 13 9 6 5 7 10 11 11 12 9
93 94 100 86 66 61 61 72 69 80 76 69 64 58 53 52 54 55 55 49 54 69 69 58 59 55 61 67 46 36 26 24 22 18 12 10 8 11 14 13 13 13 9
95 93 100 83 73 71 80 89 92 98 90 80 73 70 66 59 55 53 56 62 65 72 74 68 62 56 63 68 42 32 28 24 24 24 20 15 12 16 17 15 17 15 11
91 96 100 85 74 82 96 96 95 97 96 88 70 77 70 70 81 82 84 86 79 75 64 64 64 72 74 67 42 34 28 28 29 30 29 21 15 21 23 19 19 16 12
96 97 99 92 87 93 97 95 90 96 97 90 89 92 91 88 90 89 85 81 75 82 74 64 74 76 76 62 43 37 32 30 34 40 34 20 19 27 26 23 19 16 12
97 97 98 98 95 94 96 95 92 94 98 96 94 93 93 94 92 90 93 90 90 87 84 88 82 75 67 69 58 49 39 41 42 46 37 26 24 33 32 26 20 18 14
100 98 98 98 97 98 98 97 91 83 99 100 95 96 95 93 95 95 86 74 85 78 78 86 100 86 90 90 73 60 49 50 47 47 32 31 33 39 33 25 22 21 17
100 97 94 95 96 99 98 98 96 95 89 79 98 100 94 97 98 97 96 92 80 77 85 75 86 100 100 87 81 70 59 52 52 49 49 44 46 41 30 26 24 23 20
100 96 94 89 86 94 98 98 98 98 94 96 97 97 96 98 97 97 98 100 94 93 82 77 92 96 98 94 82 79 70 62 59 58 54 50 51 36 32 27 21 22 26
99 96 96 95 96 95 93 96 97 97 98 98 98 98 98 95 97 99 98 100 100 99 100 96 93 89 96 98 86 85 80 74 67 62 62 60 47 41 29 23 26 31 37
99 97 97 97 96 96 98 97 97 96 98 98 96 95 99 96 96 96 95 88 84 100 100 99 97 97 95 97 88 87 81 82 77 77 74 58 41 26 23 26 32 45 41
99 99 98 98 97 97 97 97 98 98 98 98 98 98 98 99 100 97 100 99 100 87 100 100 98 97 99 98 100 100 97 90 83 75 63 41 25 20 24 41 42 24 13
98 98 98 97 97 98 98 100 98 98 96 99 98 96 99 98 99 97 100 99 100 100 100 100 100 100 100 100 97 97 100 79 56 41 37 23 25 36 40 30 16 15 15
96 96 98 98 96 94 93 92 90 94 95 97 98 97 96 94 93 100 98 91 96 97 98 99 100 100 100 100 99 100 100 94 84 80 63 30 33 31 20 17 16 15 15
98 98 92 89 93 90 82 83 89 83 88 90 87 84 87 94 99 96 63 73 89 93 91 100 100 100 100 99 100 100 100 96 85 37 30 34 29 22 18 16 16 14 10
98 94 93 92 84 82 83 76 71 65 68 72 59 54 55 54 54 86 99 99 95 100 100 100 100 100 100 100 100 99 97 75 46 36 29 25 20 18 16 12 8 7 5
97 94 90 83 61 51 41 46 44 46 48 37 38 42 46 67 77 97 100 100 100 100 100 100 100 100 100 100 96 78 51 39 33 27 20 18 15 12 8 6 6 7 8
41 62 59 41 32 24 23 26 28 30 29 31 31 32 52 99 100 100 100 100 100 100 100 100 100 100 99 67 44 37 35 30 25 21 16 14 8 6 6 6 9 14 17
16 13 11 11 15 21 20 17 18 20 20 22 32 75 100 100 99 99 93 100 100 100 100 100 99 96 69 38 37 34 30 24 19 13 8 6 6 6 7 13 21 25 25
14 14 13 12 11 14 13 14 14 15 34 86 80 60 100 94 96 100 100 100 100 99 100 99 95 59 39 37 34 28 21 15 9 7 8 7 10 14 15 22 25 27 24
Wind_Speed
27 26 28 27 29 28 29 29 29 29 30 31 35 34 33 33 36 37 37 37 37 38 39 39 39 39 40 40 39 39 39 37 34 34 36 38 38 39 40 42 44 44 45
30 29 29 29 31 32 33 33 33 33 33 33 35 36 34 35 36 38 38 38 38 39 41 40 40 40 40 41 40 40 39 38 36 34 33 33 34 37 43 48 50 48 48
34 34 33 33 33 34 35 36 36 36 37 37 37 38 38 37 38 38 38 38 39 41 41 41 41 42 42 43 40 39 40 36 31 29 29 33 37 41 44 48 51 52 51
37 37 38 37 37 36 36 37 37 36 37 39 39 39 40 40 39 40 39 39 39 41 42 42 43 44 45 43 40 40 40 33 30 28 32 34 36 39 42 41 46 44 41
41 42 42 39 40 37 37 37 37 36 37 39 40 40 40 41 40 39 39 38 38 40 41 43 44 44 47 43 43 43 38 31 28 32 33 34 36 36 35 33 35 40 45
45 46 42 42 43 38 37 37 37 38 37 38 38 40 40 40 39 39 40 41 41 40 41 43 45 46 47 45 44 42 36 32 33 34 33 34 36 34 35 38 37 39 49
47 48 47 39 40 41 40 39 38 40 39 38 39 41 40 40 39 40 41 41 41 41 43 46 47 47 49 47 47 40 36 35 36 37 37 37 39 37 37 38 40 40 46
48 49 46 48 44 42 40 41 40 39 41 39 40 41 41 41 42 42 42 40 40 42 45 48 49 48 47 49 43 39 36 40 41 41 43 44 44 40 40 39 42 43 44
50 50 48 51 48 46 46 44 41 42 42 41 41 42 42 43 43 40 41 42 44 45 46 48 50 50 52 48 42 40 41 42 46 47 48 49 49 46 41 43 44 44 44
53 53 51 54 51 48 49 46 45 45 44 42 41 40 40 40 40 42 43 46 46 46 47 49 50 53 51 46 42 43 45 48 50 51 50 51 50 48 42 43 44 44 46
54 55 54 56 55 54 49 46 45 49 49 43 42 39 41 42 44 42 42 44 47 51 52 50 54 56 47 44 45 48 50 52 53 52 51 50 52 49 45 43 44 46 47
57 58 59 60 59 55 52 51 50 50 52 48 49 45 46 47 49 49 50 48 47 48 54 55 59 52 39 48 52 52 52 54 54 53 53 53 54 49 48 46 46 48 48
56 59 61 63 59 56 57 57 51 54 56 58 57 52 53 56 51 54 45 51 50 55 53 58 60 48 47 56 58 56 54 55 55 55 55 55 56 49 50 47 49 49 50
54 58 58 58 55 50 57 63 62 58 57 56 65 57 60 55 53 47 49 48 53 56 59 58 56 53 53 58 59 56 57 57 56 56 57 56 54 51 50 51 53 53 51
53 56 56 55 51 56 49 60 64 58 61 61 62 65 54 51 47 49 51 52 55 57 60 59 56 57 58 57 58 59 59 58 58 59 58 56 52 52 53 55 56 56 54
58 59 58 58 56 58 61 59 50 58 53 58 51 54 49 51 49 49 45 54 54 57 59 60 60 61 60 59 60 61 60 60 61 60 56 54 54 54 56 59 61 57 55
61 63 64 63 57 54 54 46 51 52 49 46 44 45 47 44 44 43 49 49 49 54 56 62 65 68 67 64 63 60 61 61 58 57 55 57 57 58 63 64 62 57 52
56 57 61 62 61 58 57 52 52 55 54 54 49 50 50 45 46 52 49 49 49 54 58 65 66 67 68 65 60 62 59 56 54 56 55 58 61 64 65 64 59 54 50
47 46 48 48 49 48 48 48 50 52 50 47 50 48 50 47 50 54 57 61 60 62 59 59 63 66 64 61 60 56 49 48 54 55 58 63 64 65 63 60 58 56 58
43 37 36 37 38 40 44 46 45 46 49 48 46 46 48 52 52 59 61 61 62 63 64 62 62 63 61 57 55 52 52 50 56 65 67 67 67 66 63 62 64 66 69
40 35 38 39 38 40 41 43 45 44 45 47 47 51 55 58 58 60 61 65 66 67 63 60 59 59 59 59 57 56 56 61 63 67 66 67 67 66 68 70 72 74 75
36 36 41 42 41 41 44 46 47 47 48 50 52 53 57 59 62 67 71 72 67 65 61 55 57 59 59 55 52 52 56 60 65 67 66 65 68 69 72 74 78 78 75
38 40 41 44 45 44 46 49 49 51 55 56 57 60 61 65 67 69 68 67 61 56 56 55 55 54 49 52 55 58 63 65 65 66 65 67 72 73 76 75 75 73 71
50 50 51 51 50 49 50 52 54 58 60 63 64 65 66 66 67 69 68 58 51 52 52 52 49 48 52 56 59 61 63 64 65 68 71 71 75 74 71 67 64 59 56
48 51 53 57 56 57 57 58 60 63 66 67 68 66 62 61 61 48 46 46 47 45 46 47 51 53 56 58 60 62 64 65 67 71 75 76 71 66 62 55 52 53 55
50 50 50 50 54 58 59 63 65 68 65 62 59 57 60 59 57 49 41 40 42 45 47 50 54 55 56 59 62 64 66 68 70 72 71 68 61 59 53 50 49 50 54
Wind_Direction
279 277 275 274 273 275 276 277 278 277 276 275 274 276 279 280 283 286 289 290 289 292 297 300 304 305 307 309 308 310 311 311 313 313 316 313 313 313 313 311 309 304 297
279 278 277 278 276 274 275 275 279 280 280 280 279 278 278 279 280 282 285 286 288 292 296 299 301 303 305 308 307 309 311 313 316 316 316 316 318 316 317 317 312 301 291
277 279 279 278 279 277 277 277 277 278 279 280 280 281 279 278 278 279 280 284 288 290 294 298 299 301 305 306 306 310 310 312 315 315 316 318 318 321 320 315 304 295 287
277 279 281 279 277 278 279 279 279 277 277 278 279 280 281 281 282 282 282 283 286 290 293 295 298 302 304 302 307 310 308 309 311 311 314 314 317 318 310 304 302 306 304
276 277 279 282 280 280 278 276 276 275 276 276 278 279 280 283 283 282 281 282 287 288 291 294 298 300 299 302 308 307 304 303 304 308 307 308 311 306 300 310 308 308 315
272 274 277 278 278 280 276 273 274 275 276 280 280 278 279 280 279 281 284 286 287 288 291 294 296 297 297 303 305 301 296 295 301 302 299 299 302 300 297 302 309 307 312
269 274 281 280 277 275 274 274 273 275 277 278 279 278 277 277 278 280 281 283 285 287 291 295 294 296 297 299 302 293 291 291 295 295 291 290 294 300 293 303 307 308 314
269 273 277 279 277 274 274 271 273 276 277 279 280 279 279 279 279 281 282 283 285 290 293 293 293 294 295 297 291 288 288 289 287 287 289 286 292 298 294 298 303 309 313
267 271 272 273 273 273 272 272 272 273 274 278 278 279 279 279 281 283 285 288 290 293 293 293 293 295 296 292 282 284 288 288 284 285 285 288 288 294 294 294 300 310 310
263 267 271 273 274 274 273 272 272 275 280 280 281 282 284 284 286 286 288 289 291 291 292 294 295 298 295 283 281 286 286 282 281 282 284 285 288 291 289 290 296 309 307
261 266 267 268 271 272 271 272 274 277 280 280 280 286 287 287 286 286 284 288 293 292 292 294 297 297 288 280 282 284 283 281 280 282 283 284 288 291 284 289 293 304 305
261 264 265 263 268 269 268 269 276 284 277 276 279 282 287 287 290 291 290 291 293 291 294 296 298 293 279 284 281 281 281 281 281 281 281 283 288 286 285 286 290 300 299
263 263 262 266 271 272 267 269 277 283 283 276 280 280 284 286 290 289 288 293 289 290 294 295 291 277 281 288 284 280 279 279 279 280 282 283 285 280 280 284 288 294 293
261 262 266 268 269 270 266 268 271 275 280 275 277 278 282 284 286 287 288 292 292 293 292 293 288 274 282 287 282 279 279 278 278 279 281 283 280 277 280 285 287 290 287
259 262 264 267 269 273 271 276 269 274 278 279 277 276 282 285 288 290 297 294 290 293 291 291 279 278 286 284 281 280 277 276 278 280 281 279 277 277 284 287 287 285 282
253 256 260 262 261 264 268 270 281 271 277 276 285 285 282 290 289 290 294 290 291 291 289 277 274 279 281 277 276 277 277 278 279 281 279 278 278 282 283 283 282 282 278
251 254 256 258 259 262 267 267 268 275 279 277 286 282 284 280 281 289 288 288 291 293 283 273 274 276 277 277 276 276 277 279 280 278 278 279 280 282 281 281 281 280 276
257 260 261 262 265 267 269 275 280 281 279 280 283 282 279 291 287 291 288 289 286 290 281 278 283 283 276 276 275 275 277 278 281 282 279 281 282 284 283 283 282 278 274
257 259 261 262 262 264 265 272 277 280 279 278 284 282 279 290 282 281 288 287 288 289 283 282 284 278 275 274 275 274 275 276 280 285 289 289 285 285 284 282 279 278 277
256 264 274 275 278 279 276 278 282 283 281 280 280 277 278 277 281 286 284 288 292 295 291 285 281 274 274 273 271 274 272 274 283 283 284 286 286 286 285 283 283 282 280
260 264 269 272 273 274 277 279 279 282 281 276 276 278 281 280 280 282 281 285 286 287 286 280 275 273 273 273 272 277 276 278 283 284 286 287 287 287 288 289 287 285 283
270 263 262 264 268 271 272 274 279 283 282 280 284 284 284 283 284 279 281 282 287 286 281 276 273 271 270 274 280 281 283 284 286 287 289 290 288 288 289 290 288 285 284
276 272 270 269 269 269 269 268 268 267 268 272 275 275 274 273 274 278 281 282 286 282 275 271 270 272 278 282 286 287 287 287 289 289 289 289 290 292 293 291 285 284 282
277 276 277 275 275 270 268 266 266 265 267 268 270 270 271 273 276 279 282 284 279 273 271 269 272 278 285 289 289 289 290 291 291 292 293 293 293 295 296 291 286 286 283
275 280 279 279 277 275 275 271 268 265 264 265 267 270 274 279 282 284 281 274 270 267 270 275 280 285 292 291 291 291 292 292 294 295 295 296 296 297 295 290 290 288 286
279 274 268 269 266 260 262 262 264 263 264 266 279 282 279 281 284 278 269 259 267 272 283 286 289 290 290 291 292 293 294 296 296 297 295 296 294 292 293 292 289 287 286